Location: Dal�� Lhota
(48.7500°N, 14.0167°E)
Time: 09:17:55
(UTC+00:00)

Explorer 7 - Pass Details

Date: 01 August 2021
Orbit: 484 x 676 km, 50.3° (Epoch: 21 September)

Event Time Altitude Azimuth Distance (km) Brightness Sun altitude
Rises 03:36:09 0° 209° (SSW) 2,541 9.7 -1.1°
Reaches altitude 10° 03:38:36 10° 194° (SSW) 1,677 8.9 -0.7°
Maximum altitude 03:41:35 22° 141° (SE) 1,120 8.6 -0.3°
Drops below altitude 10° 03:44:40 10° 89° (E) 1,738 10.7 0.2°
Sets 03:47:16 0° 74° (ENE) 2,661 12.5 0.5°
